JTC427 KBED-KGSO

Flight info

Callsign JTC427
Flight time N/A
Altitude 40000
Route SSOXS Q167 RIFLE HEADI Q97 SAWED COUPN RDU
Aircraft CL60/M-SBDE1E2E3FGHIJ4J5J7M3RWXYZ/LB1V1D1

Departure

Time 2026-05-04 17:09
Airport Laurence G Hanscom Field (KBED)

Arrival

Time N/A
Airport Piedmont Triad International Airport (KGSO)
Time Latitude Longitude Altitude Speed Heading
2026-05-04 16:44 42.46315 -71.28989 139 ft 0 kts 338°
2026-05-04 17:05 42.46318 -71.28992 139 ft 2 kts 337°
2026-05-04 17:06 42.46434 -71.29018 139 ft 13 kts
2026-05-04 17:06 42.46545 -71.28992 139 ft 11 kts 28°
2026-05-04 17:07 42.46756 -71.28782 139 ft 25 kts 40°
2026-05-04 17:07 42.46823 -71.28684 139 ft 15 kts 52°
2026-05-04 17:07 42.46816 -71.28465 139 ft 20 kts 99°
2026-05-04 17:07 42.46796 -71.28258 139 ft 23 kts 96°
2026-05-04 17:08 42.46778 -71.28020 139 ft 27 kts 98°
2026-05-04 17:08 42.46820 -71.27600 139 ft 18 kts
2026-05-04 17:08 42.46920 -71.27587 139 ft 10 kts 358°
2026-05-04 17:09 42.46971 -71.27792 139 ft 69 kts 279°
2026-05-04 17:09 42.47080 -71.28925 153 ft 163 kts 278°
2026-05-04 17:09 42.47251 -71.30513 1158 ft 176 kts 274°
2026-05-04 17:10 42.47570 -71.33626 3789 ft 178 kts 274°
2026-05-04 17:10 42.45786 -71.37568 7413 ft 209 kts 211°
2026-05-04 17:11 42.44313 -71.38494 8108 ft 249 kts 211°
2026-05-04 17:11 42.42681 -71.39508 9284 ft 267 kts 211°
2026-05-04 17:11 42.39213 -71.41654 12020 ft 285 kts 211°
2026-05-04 17:12 42.37400 -71.42776 13316 ft 292 kts 211°
2026-05-04 17:12 42.33617 -71.45116 15793 ft 306 kts 211°
2026-05-04 17:13 42.27123 -71.49155 17534 ft 375 kts 210°
2026-05-04 17:14 42.19746 -71.53708 20351 ft 397 kts 210°
2026-05-04 17:14 42.17205 -71.55273 21281 ft 403 kts 210°
2026-05-04 17:14 42.12022 -71.58465 23003 ft 413 kts 209°
2026-05-04 17:15 42.09387 -71.60087 23787 ft 419 kts 209°
2026-05-04 17:15 42.04035 -71.63377 25265 ft 429 kts 210°
2026-05-04 17:16 41.98531 -71.66754 26594 ft 438 kts 209°
2026-05-04 17:16 41.89962 -71.72003 28332 ft 451 kts 209°
2026-05-04 17:17 41.87074 -71.73769 28853 ft 455 kts 209°
2026-05-04 17:17 41.78991 -71.78700 30324 ft 459 kts 209°
2026-05-04 17:18 41.76067 -71.80477 31007 ft 456 kts 210°
2026-05-04 17:18 41.70323 -71.83967 32240 ft 448 kts 210°
2026-05-04 17:19 41.64653 -71.87406 33339 ft 441 kts 210°
2026-05-04 17:19 41.60086 -71.90174 34031 ft 437 kts 209°
2026-05-04 17:20 41.55447 -71.92981 34687 ft 433 kts 209°
2026-05-04 17:20 41.49897 -71.96333 35419 ft 429 kts 209°
2026-05-04 17:20 41.47145 -71.97993 35748 ft 427 kts 209°
2026-05-04 17:21 41.41690 -72.01280 36360 ft 425 kts 209°
2026-05-04 17:21 41.36240 -72.04558 36932 ft 423 kts 209°
2026-05-04 17:22 41.33525 -72.06189 37210 ft 422 kts 209°
2026-05-04 17:22 41.30909 -72.07759 37472 ft 421 kts 209°
2026-05-04 17:23 41.23777 -72.12028 38028 ft 422 kts 209°
2026-05-04 17:23 41.21058 -72.13654 38243 ft 421 kts 209°
2026-05-04 17:23 41.16089 -72.16624 38651 ft 421 kts 209°
2026-05-04 17:24 41.13396 -72.18232 38904 ft 420 kts 209°
2026-05-04 17:24 41.05845 -72.22726 39543 ft 418 kts 209°
2026-05-04 17:25 41.03319 -72.24229 39744 ft 418 kts 209°
2026-05-04 17:25 40.98970 -72.26812 39982 ft 419 kts 209°
2026-05-04 17:26 40.94131 -72.29719 39981 ft 424 kts 211°
2026-05-04 17:26 40.87187 -72.36899 39987 ft 421 kts 228°
2026-05-04 17:27 40.82989 -72.42387 39981 ft 422 kts 228°
2026-05-04 17:28 40.74178 -72.52644 39988 ft 423 kts 223°